Location: Ravensburg
(47.7866°N, 9.6124°E)
Time: 08:57:35
(UTC+02:00)

YUBILEINY - Pass Details

Date: 23 March 2026
Orbit: 1477 x 1509 km, 82.5° (Epoch: 17 April)

Event Time Altitude Azimuth Distance (km) Brightness Sun altitude
Rises 01:10:50 0° 352° (N) 4,618 ? -40.4°
Reaches altitude 10° 01:14:19 10° 4° (N) 3,631 ? -40.2°
Maximum altitude 01:21:39 29° 62° (ENE) 2,448 ? -39.9°
Enters shadow 01:26:24 18° 106° (ESE) 3,002 ? -39.6°
